Printer-friendly version

IAU Minor Planet Center

Minor Planet Center

MPEC 2001-G02: 2001 FR128

The following Minor Planet Electronic Circular may be linked-to from your own Web pages, but must not otherwise be redistributed electronically.


Read MPEC 2001-G01 Read MPEC 2001-G03


M.P.E.C. 2001-G02                                Issued 2001 Apr. 2, 17:48 UT

     The Minor Planet Electronic Circulars contain information on unusual
         minor planets and routine data on comets.  They are published
   on behalf of Commission 20 of the International Astronomical Union by the
          Minor Planet Center, Smithsonian Astrophysical Observatory,
                          Cambridge, MA 02138, U.S.A.

             Prepared using the Tamkin Foundation Computer Network

                              MPC@CFA.HARVARD.EDU
          URL http://cfa-www.harvard.edu/iau/mpc.html  ISSN 1523-6714

                                  2001 FR128

Observations:
     K01FC8R* C2001 03 31.38800 15 23 02.45 +32 54 48.5          18.5 R      699
     K01FC8R  C2001 03 31.41159 15 23 06.25 +32 58 52.7                      699
     K01FC8R  C2001 03 31.43525 15 23 10.00 +33 02 54.8                      699
     K01FC8R  C2001 03 31.45887 15 23 13.92 +33 06 58.4                      699
     K01FC8R  C2001 04 01.01550 15 24 53.41 +34 42 26.7                      046
     K01FC8R  C2001 04 01.01626 15 24 53.57 +34 42 35.0                      046
     K01FC8R  C2001 04 01.01679 15 24 53.63 +34 42 40.1          18.8 V      046
     K01FC8R  C2001 04 01.01763 15 24 53.75 +34 42 49.5                      046
     K01FC8R  C2001 04 01.01821 15 24 53.91 +34 42 53.9                      046
     K01FC8R  C2001 04 01.01892 15 24 53.93 +34 43 02.3          18.2 R      046
     K01FC8R  C2001 04 01.08954 15 25 05.95 +34 55 09.5                      557
     K01FC8R  C2001 04 01.09021 15 25 06.09 +34 55 15.6                      557
     K01FC8R  C2001 04 01.09087 15 25 06.16 +34 55 22.5                      557
     K01FC8R  C2001 04 01.09154 15 25 06.30 +34 55 29.3                      557
     K01FC8R  C2001 04 01.09219 15 25 06.41 +34 55 35.0          19.3 V      557
     K01FC8R  C2001 04 01.36508 15 25 56.18 +35 42 28.1          19.4 R      649
     K01FC8R  C2001 04 01.36716 15 25 56.52 +35 42 49.0          18.8 R      649
     K01FC8R  C2001 04 01.36925 15 25 56.84 +35 43 11.4          18.8 R      649
     K01FC8R  C2001 04 02.02567 15 27 58.67 +37 35 13.7                      118
     K01FC8R  C2001 04 02.02763 15 27 59.03 +37 35 33.4                      118
     K01FC8R  C2001 04 02.02941 15 27 59.27 +37 35 51.6          18.2 R      118
     K01FC8R  C2001 04 02.04661 15 28 02.45 +37 38 47.6          17.9 R      046
     K01FC8R  C2001 04 02.04796 15 28 02.70 +37 39 01.8                      046
     K01FC8R  C2001 04 02.04847 15 28 02.80 +37 39 05.4                      046
     K01FC8R  C2001 04 02.04900 15 28 02.92 +37 39 11.4                      046
     K01FC8R  C2001 04 02.04953 15 28 02.99 +37 39 17.1          18.0 R      046
     K01FC8R  C2001 04 02.09403 15 28 10.88 +37 46 51.4                      557
     K01FC8R  C2001 04 02.09468 15 28 11.02 +37 46 57.9                      557
     K01FC8R  C2001 04 02.09534 15 28 11.16 +37 47 04.9                      557
     K01FC8R  C2001 04 02.09600 15 28 11.24 +37 47 11.3                      557
     K01FC8R  C2001 04 02.09667 15 28 11.36 +37 47 18.7                      557
     K01FC8R  C2001 04 02.09733 15 28 11.48 +37 47 24.4                      557
     K01FC8R  C2001 04 02.09799 15 28 11.64 +37 47 32.2          18.9 V      557
     K01FC8R  C2001 04 02.36396 15 29 02.50 +38 32 49.7          18.0        649
     K01FC8R  C2001 04 02.36628 15 29 03.06 +38 33 13.5          18.1        649
     K01FC8R  C2001 04 02.36854 15 29 03.38 +38 33 38.6          18.3        649

Observer details:
046 Klet.  Observers J. Ticha, M. Tichy, P. Jelinek.  0.57-m f/5.2
    reflector + CCD.
118 Modra.  Observers A. Galad, J. Toth.  0.6-m f/5.5 reflector + CCD.
557 Ondrejov.  Observer P. Kusnirak.  0.65-m f/3.6 reflector + CCD.
649 Powell Observatory, Louisburg.  Observer K. Smalley.  0.75-m Newtonian
    + CCD.
699 Lowell Observatory-LONEOS.  Observer B. W. Koehn.  0.59-m LONEOS Schmidt
    + CCD.

Orbital elements:
2001 FR128
Epoch 2001 Apr. 1.0 TT = JDT 2452000.5                  Spahr
M 302.70959              (2000.0)            P               Q
n   0.68039581     Peri.  120.82657     +0.55519018     +0.82995287
a   1.2802505      Node   184.28757     -0.75336700     +0.52944879
e   0.4122784      Incl.   46.51152     +0.35242307     -0.17567646
P   1.45           H   19.4           G   0.15
From 36 observations 2001 Mar. 31-Apr. 2.

Ephemeris:
2001 FR128               a,e,i = 1.28, 0.41, 47                  q = 0.7524
Date    TT    R. A. (2000) Decl.     Delta      r     Elong.  Phase     V
2001 03 22    14 59.93   +07 58.5    0.336    1.259   135.6    33.6    18.9
2001 04 01    15 24.83   +34 39.8    0.295    1.194   125.2    43.2    18.8
2001 04 11    16 04.94   +60 25.0    0.328    1.127   103.9    59.7    19.4
2001 04 21    17 35.5    +76 30.0    0.407    1.058    86.1    71.4    20.1
2001 05 01    21 17.9    +81 48.4    0.500    0.990    73.5    77.5    20.6
2001 05 11    00 08.2    +78 29.0    0.591    0.924    64.4    80.4    20.9

Timothy B. Spahr             (C) Copyright 2001 MPC           M.P.E.C. 2001-G02

Read MPEC 2001-G01 Read MPEC 2001-G03


Our Web policy. Index to the CBAT/MPC/ICQ pages.


Valid HTML 4.01!